Japanese version Home page |
Updated on July 16, 2007 |
Profile
|
Orbital ElementsEpoch = 2002 July 25.0 TT T = 2002 Aug. 3.10144 TT Peri. = 15.30571 e = 0.5973957 Node = 282.20995 2000.0 q = 1.1742394 AU Incl. = 20.39966 a = 2.9166089 AU n = 0.19787311 P = 4.98 years
|
Finding Charts
|
Magnitudes Graphm1 = 18.0 + 5 log d + 10.0 log r
|
The orbital elements are printed on
IAUC 8856.
|